Time,TemperatureF,DewpointF,PressureIn,WindDirection,WindDirectionDegrees,WindSpeedMPH,WindSpeedGustMPH,Humidity,HourlyPrecipIn,Conditions,Clouds,dailyrainin,SoftwareType,DateUTC
2013-03-10 10:04:00,50.9,38.3,30.06,WSW,248,0.0,0.0,62,0.00,CLR,OVC,0.00,WeatherDisplay:10.37,2013-03-10 14:04:00,
2013-03-10 10:05:00,51.4,38.8,30.05,WSW,248,0.0,0.0,62,0.00,CLR,OVC,0.00,WeatherDisplay:10.37,2013-03-10 14:05:00,
2013-03-10 10:10:00,51.6,38.6,30.06,WSW,248,0.0,0.0,61,0.00,CLR,OVC,0.00,WeatherDisplay:10.37,2013-03-10 14:10:00,
2013-03-10 10:15:00,51.8,38.3,30.05,WSW,248,0.0,0.0,60,0.00,BKN,OVC,0.00,WeatherDisplay:10.37,2013-03-10 14:15:00,
2013-03-10 10:20:00,52.0,38.1,30.06,East,100,6.9,6.9,59,0.00,SCT,OVC,0.00,WeatherDisplay:10.37,2013-03-10 14:20:00,
2013-03-10 10:25:00,52.0,38.1,30.06,East,100,6.9,6.9,59,0.00,SCT,OVC,0.00,WeatherDisplay:10.37,2013-03-10 14:25:00,
2013-03-10 10:30:00,52.2,38.3,30.06,East,100,6.9,6.9,59,0.00,CLR,OVC,0.00,WeatherDisplay:10.37,2013-03-10 14:30:00,
2013-03-10 10:35:00,52.5,38.6,30.06,East,100,6.9,6.9,59,0.00,SCT,OVC,0.00,WeatherDisplay:10.37,2013-03-10 14:35:00,
2013-03-10 10:40:00,52.7,38.8,30.05,East,100,6.9,6.9,59,0.00,CLR,OVC,0.00,WeatherDisplay:10.37,2013-03-10 14:40:00,
2013-03-10 10:45:00,53.2,38.8,30.05,East,100,6.9,6.9,58,0.00,SCT,OVC,0.00,WeatherDisplay:10.37,2013-03-10 14:45:00,
2013-03-10 10:50:00,54.0,39.1,30.05,East,100,6.9,6.9,57,0.00,SCT,OVC,0.00,WeatherDisplay:10.37,2013-03-10 14:50:00,
2013-03-10 10:55:00,54.3,38.9,30.04,East,100,6.9,6.9,56,0.00,CLR,OVC,0.00,WeatherDisplay:10.37,2013-03-10 14:55:00,
2013-03-10 11:00:00,54.5,38.7,30.04,East,100,6.9,6.9,55,0.00,SCT,OVC,0.00,WeatherDisplay:10.37,2013-03-10 15:00:00,
2013-03-10 11:05:00,54.5,38.2,30.04,East,100,6.9,6.9,54,0.00,CLR,OVC,0.00,WeatherDisplay:10.37,2013-03-10 15:05:00,
2013-03-10 11:10:00,55.0,38.7,30.04,East,100,6.9,6.9,54,0.00,SCT,OVC,0.00,WeatherDisplay:10.37,2013-03-10 15:10:00,
2013-03-10 11:15:00,55.2,38.4,30.04,East,100,6.9,6.9,53,0.00,SCT,OVC,0.00,WeatherDisplay:10.37,2013-03-10 15:15:00,
2013-03-10 11:20:00,55.6,38.7,30.04,ESE,110,20.7,20.7,53,0.00,CLR,OVC,0.00,WeatherDisplay:10.37,2013-03-10 15:20:00,
2013-03-10 11:25:00,55.8,38.4,30.04,ESE,110,20.7,20.7,52,0.00,CLR,OVC,0.00,WeatherDisplay:10.37,2013-03-10 15:25:00,
2013-03-10 11:30:00,55.9,38.6,30.04,ESE,110,20.7,20.7,52,0.00,CLR,OVC,0.00,WeatherDisplay:10.37,2013-03-10 15:30:00,
2013-03-10 11:35:00,56.3,38.4,30.04,ESE,110,20.7,20.7,51,0.00,BKN,OVC,0.00,WeatherDisplay:10.37,2013-03-10 15:35:00,
2013-03-10 11:40:00,56.8,38.9,30.04,ESE,110,20.7,20.7,51,0.00,BKN,OVC,0.00,WeatherDisplay:10.37,2013-03-10 15:40:00,
2013-03-10 11:45:00,57.0,39.1,30.04,ESE,110,20.7,20.7,51,0.00,CLR,OVC,0.00,WeatherDisplay:10.37,2013-03-10 15:45:00,
2013-03-10 11:50:00,57.6,39.6,30.04,ESE,110,20.7,20.7,51,0.00,BKN,OVC,0.00,WeatherDisplay:10.37,2013-03-10 15:50:00,
2013-03-10 11:55:00,57.9,39.9,30.04,ESE,110,20.7,20.7,51,0.00,CLR,OVC,0.00,WeatherDisplay:10.37,2013-03-10 15:55:00,
2013-03-10 12:00:00,58.3,39.7,30.04,ESE,110,20.7,20.7,50,0.00,CLR,OVC,0.00,WeatherDisplay:10.37,2013-03-10 16:00:00,
2013-03-10 12:05:00,58.8,40.2,30.04,ESE,110,20.7,20.7,50,0.00,BKN,OVC,0.00,WeatherDisplay:10.37,2013-03-10 16:05:00,
2013-03-10 12:10:00,59.2,40.0,30.04,ESE,110,20.7,20.7,49,0.00,CLR,OVC,0.00,WeatherDisplay:10.37,2013-03-10 16:10:00,
2013-03-10 12:15:00,59.5,39.8,30.04,ESE,110,20.7,20.7,48,0.00,CLR,OVC,0.00,WeatherDisplay:10.37,2013-03-10 16:15:00,
2013-03-10 12:20:00,59.9,39.6,30.04,ESE,110,19.6,19.6,47,0.00,BKN,OVC,0.00,WeatherDisplay:10.37,2013-03-10 16:20:00,
2013-03-10 12:25:00,60.6,40.3,30.04,ESE,110,19.6,19.6,47,0.00,BKN,OVC,0.00,WeatherDisplay:10.37,2013-03-10 16:25:00,
2013-03-10 12:30:00,60.6,39.1,30.04,ESE,110,19.6,19.6,45,0.00,BKN,OVC,0.00,WeatherDisplay:10.37,2013-03-10 16:30:00,
2013-03-10 12:35:00,61.0,39.5,30.04,ESE,110,19.6,19.6,45,0.00,BKN,OVC,0.00,WeatherDisplay:10.37,2013-03-10 16:35:00,
2013-03-10 12:40:00,61.7,40.1,30.04,ESE,110,19.6,19.6,45,0.00,BKN,OVC,0.00,WeatherDisplay:10.37,2013-03-10 16:40:00,
2013-03-10 12:45:00,61.7,39.6,30.03,ESE,110,19.6,19.6,44,0.00,BKN,OVC,0.00,WeatherDisplay:10.37,2013-03-10 16:45:00,
2013-03-10 12:50:00,62.4,40.2,30.03,ESE,110,19.6,19.6,44,0.00,CLR,OVC,0.00,WeatherDisplay:10.37,2013-03-10 16:50:00,
2013-03-10 12:55:00,62.8,39.9,30.03,ESE,110,19.6,19.6,43,0.00,CLR,OVC,0.00,WeatherDisplay:10.37,2013-03-10 16:55:00,
2013-03-10 13:00:00,63.1,40.3,30.02,ESE,110,19.6,19.6,43,0.00,CLR,OVC,0.00,WeatherDisplay:10.37,2013-03-10 17:00:00,
2013-03-10 13:05:00,63.1,39.7,30.03,ESE,110,19.6,19.6,42,0.00,CLR,OVC,0.00,WeatherDisplay:10.37,2013-03-10 17:05:00,
2013-03-10 13:10:00,63.3,39.2,30.03,ESE,110,19.6,19.6,41,0.00,CLR,OVC,0.00,WeatherDisplay:10.37,2013-03-10 17:10:00,
2013-03-10 13:15:00,63.3,39.2,30.02,ESE,110,19.6,19.6,41,0.00,BKN,OVC,0.00,WeatherDisplay:10.37,2013-03-10 17:15:00,
2013-03-10 13:20:00,63.7,40.1,30.02,ESE,110,19.6,19.6,42,0.00,BKN,OVC,0.00,WeatherDisplay:10.37,2013-03-10 17:20:00,
2013-03-10 13:25:00,64.0,39.2,30.01,ESE,110,19.6,19.6,40,0.00,BKN,OVC,0.00,WeatherDisplay:10.37,2013-03-10 17:25:00,
2013-03-10 13:30:00,64.0,38.6,30.01,ESE,110,19.6,19.6,39,0.00,BKN,OVC,0.00,WeatherDisplay:10.37,2013-03-10 17:30:00,
2013-03-10 13:35:00,64.0,38.6,30.01,ESE,110,19.6,19.6,39,0.00,BKN,OVC,0.00,WeatherDisplay:10.37,2013-03-10 17:35:00,
2013-03-10 13:40:00,64.2,38.7,30.01,ESE,110,19.6,19.6,39,0.00,BKN,OVC,0.00,WeatherDisplay:10.37,2013-03-10 17:40:00,
2013-03-10 13:45:00,64.2,38.7,30.01,ESE,110,19.6,19.6,39,0.00,BKN,OVC,0.00,WeatherDisplay:10.37,2013-03-10 17:45:00,
2013-03-10 13:50:00,64.0,38.6,30.01,ESE,110,19.6,19.6,39,0.00,CLR,OVC,0.00,WeatherDisplay:10.37,2013-03-10 17:50:00,
2013-03-10 13:55:00,64.0,38.6,30.00,ESE,110,19.6,19.6,39,0.00,BKN,OVC,0.00,WeatherDisplay:10.37,2013-03-10 17:55:00,
2013-03-10 14:00:00,63.7,38.2,30.00,ESE,110,19.6,19.6,39,0.00,BKN,OVC,0.00,WeatherDisplay:10.37,2013-03-10 18:00:00,
2013-03-10 14:05:00,63.7,38.2,30.00,ESE,110,19.6,19.6,39,0.00,CLR,OVC,0.00,WeatherDisplay:10.37,2013-03-10 18:05:00,
2013-03-10 14:10:00,63.5,38.1,30.00,ESE,110,19.6,19.6,39,0.00,BKN,OVC,0.00,WeatherDisplay:10.37,2013-03-10 18:10:00,
2013-03-10 14:15:00,63.5,38.1,29.99,ESE,110,19.6,19.6,39,0.00,BKN,OVC,0.00,WeatherDisplay:10.37,2013-03-10 18:15:00,
2013-03-10 14:20:00,63.9,37.7,29.99,SSE,160,19.6,19.6,38,0.00,BKN,OVC,0.00,WeatherDisplay:10.37,2013-03-10 18:20:00,
2013-03-10 14:25:00,64.0,37.9,29.99,SSE,160,19.6,19.6,38,0.00,BKN,OVC,0.00,WeatherDisplay:10.37,2013-03-10 18:25:00,
2013-03-10 14:30:00,64.2,38.1,29.99,SSE,160,19.6,19.6,38,0.00,BKN,OVC,0.00,WeatherDisplay:10.37,2013-03-10 18:30:00,
2013-03-10 14:35:00,64.8,37.9,29.99,SSE,160,19.6,19.6,37,0.00,BKN,OVC,0.00,WeatherDisplay:10.37,2013-03-10 18:35:00,
2013-03-10 14:40:00,64.8,37.9,29.99,SSE,160,19.6,19.6,37,0.00,BKN,OVC,0.00,WeatherDisplay:10.37,2013-03-10 18:40:00,
2013-03-10 14:45:00,64.8,37.2,29.99,SSE,160,19.6,19.6,36,0.00,BKN,OVC,0.00,WeatherDisplay:10.37,2013-03-10 18:45:00,
2013-03-10 14:50:00,64.6,37.7,29.98,SSE,160,19.6,19.6,37,0.00,BKN,OVC,0.00,WeatherDisplay:10.37,2013-03-10 18:50:00,
2013-03-10 14:55:00,64.6,37.7,29.99,SSE,160,19.6,19.6,37,0.00,BKN,OVC,0.00,WeatherDisplay:10.37,2013-03-10 18:55:00,
2013-03-10 15:00:00,64.6,37.7,29.98,SSE,160,19.6,19.6,37,0.00,BKN,OVC,0.00,WeatherDisplay:10.37,2013-03-10 19:00:00,
2013-03-10 15:05:00,65.1,38.2,29.98,SSE,160,19.6,19.6,37,0.00,BKN,OVC,0.00,WeatherDisplay:10.37,2013-03-10 19:05:00,
2013-03-10 15:10:00,65.1,38.2,29.97,SSE,160,19.6,19.6,37,0.00,BKN,OVC,0.00,WeatherDisplay:10.37,2013-03-10 19:10:00,
2013-03-10 15:15:00,65.3,37.6,29.97,SSE,160,19.6,19.6,36,0.00,BKN,OVC,0.00,WeatherDisplay:10.37,2013-03-10 19:15:00,
2013-03-10 15:20:00,65.5,38.5,29.97,SE,130,9.2,9.2,37,0.00,BKN,OVC,0.00,WeatherDisplay:10.37,2013-03-10 19:20:00,
2013-03-10 15:25:00,65.5,37.8,29.96,SE,130,9.2,9.2,36,0.00,BKN,OVC,0.00,WeatherDisplay:10.37,2013-03-10 19:25:00,
2013-03-10 15:30:00,65.5,38.5,29.96,SE,130,9.2,9.2,37,0.00,BKN,OVC,0.00,WeatherDisplay:10.37,2013-03-10 19:30:00,
2013-03-10 15:35:00,65.5,38.5,29.97,SE,130,9.2,9.2,37,0.00,BKN,OVC,0.00,WeatherDisplay:10.37,2013-03-10 19:35:00,
2013-03-10 15:40:00,65.5,38.5,29.96,SE,130,9.2,9.2,37,0.00,BKN,OVC,0.00,WeatherDisplay:10.37,2013-03-10 19:40:00,
2013-03-10 15:45:00,65.5,38.5,29.97,SE,130,9.2,9.2,37,0.00,BKN,OVC,0.00,WeatherDisplay:10.37,2013-03-10 19:45:00,
2013-03-10 15:50:00,65.5,39.2,29.97,SE,130,9.2,9.2,38,0.00,BKN,OVC,0.00,WeatherDisplay:10.37,2013-03-10 19:50:00,
2013-03-10 15:55:00,65.5,39.2,29.97,SE,130,9.2,9.2,38,0.00,BKN,OVC,0.00,WeatherDisplay:10.37,2013-03-10 19:55:00,
2013-03-10 16:00:00,65.3,38.3,29.96,SE,130,9.2,9.2,37,0.00,BKN,OVC,0.00,WeatherDisplay:10.37,2013-03-10 20:00:00,
2013-03-10 16:05:00,65.5,38.5,29.95,SE,130,9.2,9.2,37,0.00,BKN,OVC,0.00,WeatherDisplay:10.37,2013-03-10 20:05:00,
2013-03-10 16:10:00,65.8,39.5,29.95,SE,130,9.2,9.2,38,0.00,BKN,OVC,0.00,WeatherDisplay:10.37,2013-03-10 20:10:00,
2013-03-10 16:15:00,65.8,39.5,29.94,SE,130,9.2,9.2,38,0.00,BKN,OVC,0.00,WeatherDisplay:10.37,2013-03-10 20:15:00,
2013-03-10 16:20:00,65.8,39.5,29.94,SE,130,9.2,9.2,38,0.00,BKN,OVC,0.00,WeatherDisplay:10.37,2013-03-10 20:20:00,
2013-03-10 16:25:00,65.8,39.5,29.94,SE,130,9.2,9.2,38,0.00,BKN,OVC,0.00,WeatherDisplay:10.37,2013-03-10 20:25:00,
2013-03-10 16:30:00,65.8,38.8,29.94,SE,130,9.2,9.2,37,0.00,BKN,OVC,0.00,WeatherDisplay:10.37,2013-03-10 20:30:00,
2013-03-10 16:35:00,65.5,38.5,29.94,SE,130,9.2,9.2,37,0.00,BKN,OVC,0.00,WeatherDisplay:10.37,2013-03-10 20:35:00,
2013-03-10 16:40:00,65.5,38.5,29.94,SE,130,9.2,9.2,37,0.00,BKN,OVC,0.00,WeatherDisplay:10.37,2013-03-10 20:40:00,
2013-03-10 16:45:00,65.3,39.0,29.94,SE,130,9.2,9.2,38,0.00,BKN,OVC,0.00,WeatherDisplay:10.37,2013-03-10 20:45:00,
2013-03-10 16:50:00,65.3,39.0,29.95,SE,130,9.2,9.2,38,0.00,BKN,OVC,0.00,WeatherDisplay:10.37,2013-03-10 20:50:00,
2013-03-10 16:55:00,65.3,38.3,29.95,SE,130,9.2,9.2,37,0.00,BKN,OVC,0.00,WeatherDisplay:10.37,2013-03-10 20:55:00,
2013-03-10 17:00:00,65.5,37.1,29.94,SE,130,9.2,9.2,35,0.00,BKN,OVC,0.00,WeatherDisplay:10.37,2013-03-10 21:00:00,
2013-03-10 17:05:00,65.5,37.1,29.94,SE,130,9.2,9.2,35,0.00,BKN,OVC,0.00,WeatherDisplay:10.37,2013-03-10 21:05:00,
2013-03-10 17:10:00,65.5,37.1,29.94,SE,130,9.2,9.2,35,0.00,BKN,OVC,0.00,WeatherDisplay:10.37,2013-03-10 21:10:00,
2013-03-10 17:15:00,65.5,37.1,29.94,SE,130,9.2,9.2,35,0.00,BKN,OVC,0.00,WeatherDisplay:10.37,2013-03-10 21:15:00,
2013-03-10 17:20:00,65.5,36.4,29.94,SE,130,9.2,9.2,34,0.00,BKN,OVC,0.00,WeatherDisplay:10.37,2013-03-10 21:20:00,
2013-03-10 17:25:00,65.5,36.4,29.94,SE,130,9.2,9.2,34,0.00,BKN,OVC,0.00,WeatherDisplay:10.37,2013-03-10 21:25:00,
2013-03-10 17:30:00,65.5,36.4,29.94,SE,130,9.2,9.2,34,0.00,BKN,OVC,0.00,WeatherDisplay:10.37,2013-03-10 21:30:00,
2013-03-10 17:35:00,65.5,37.1,29.94,SE,130,9.2,9.2,35,0.00,BKN,OVC,0.00,WeatherDisplay:10.37,2013-03-10 21:35:00,
2013-03-10 17:40:00,65.5,36.4,29.94,SE,130,9.2,9.2,34,0.00,BKN,OVC,0.00,WeatherDisplay:10.37,2013-03-10 21:40:00,
2013-03-10 17:45:00,65.3,36.9,29.94,SE,130,9.2,9.2,35,0.00,BKN,OVC,0.00,WeatherDisplay:10.37,2013-03-10 21:45:00,
2013-03-10 17:50:00,65.1,36.8,29.93,SE,130,9.2,9.2,35,0.00,BKN,OVC,0.00,WeatherDisplay:10.37,2013-03-10 21:50:00,
2013-03-10 17:55:00,64.9,36.6,29.93,SE,130,9.2,9.2,35,0.00,BKN,OVC,0.00,WeatherDisplay:10.37,2013-03-10 21:55:00,
2013-03-10 18:00:00,64.9,36.6,29.93,SE,130,9.2,9.2,35,0.00,BKN,OVC,0.00,WeatherDisplay:10.37,2013-03-10 22:00:00,
2013-03-10 18:05:00,64.6,36.3,29.94,SE,130,9.2,9.2,35,0.00,BKN,OVC,0.00,WeatherDisplay:10.37,2013-03-10 22:05:00,
2013-03-10 18:10:00,64.6,36.3,29.94,SE,130,9.2,9.2,35,0.00,BKN,OVC,0.00,WeatherDisplay:10.37,2013-03-10 22:10:00,
2013-03-10 18:15:00,64.6,36.3,29.94,SE,130,9.2,9.2,35,0.00,BKN,OVC,0.00,WeatherDisplay:10.37,2013-03-10 22:15:00,
2013-03-10 18:20:00,64.6,37.0,29.93,SE,130,4.6,4.6,36,0.00,BKN,OVC,0.00,WeatherDisplay:10.37,2013-03-10 22:20:00,
2013-03-10 18:25:00,64.4,36.1,29.93,SE,130,4.6,4.6,35,0.00,BKN,OVC,0.00,WeatherDisplay:10.37,2013-03-10 22:25:00,
2013-03-10 18:30:00,64.2,36.7,29.93,SE,130,4.6,4.6,36,0.00,BKN,OVC,0.00,WeatherDisplay:10.37,2013-03-10 22:30:00,
2013-03-10 18:35:00,64.0,35.8,29.93,SE,130,4.6,4.6,35,0.00,BKN,OVC,0.00,WeatherDisplay:10.37,2013-03-10 22:35:00,
2013-03-10 18:40:00,64.0,36.5,29.93,SE,130,4.6,4.6,36,0.00,BKN,OVC,0.00,WeatherDisplay:10.37,2013-03-10 22:40:00,
2013-03-10 18:45:00,64.0,36.5,29.93,SE,130,4.6,4.6,36,0.00,BKN,OVC,0.00,WeatherDisplay:10.37,2013-03-10 22:45:00,
2013-03-10 18:50:00,63.7,36.9,29.93,SE,130,4.6,4.6,37,0.00,BKN,OVC,0.00,WeatherDisplay:10.37,2013-03-10 22:50:00,
2013-03-10 18:55:00,63.7,36.9,29.93,SE,130,4.6,4.6,37,0.00,BKN,OVC,0.00,WeatherDisplay:10.37,2013-03-10 22:55:00,
2013-03-10 19:00:00,63.7,36.9,29.93,SE,130,4.6,4.6,37,0.00,BKN,OVC,0.00,WeatherDisplay:10.37,2013-03-10 23:00:00,
2013-03-10 19:05:00,63.5,37.4,29.93,SE,130,4.6,4.6,38,0.00,BKN,OVC,0.00,WeatherDisplay:10.37,2013-03-10 23:05:00,
2013-03-10 19:10:00,63.3,37.3,29.93,SE,130,4.6,4.6,38,0.00,BKN,OVC,0.00,WeatherDisplay:10.37,2013-03-10 23:10:00,
2013-03-10 19:15:00,63.1,37.8,29.93,SE,130,4.6,4.6,39,0.00,BKN,OVC,0.00,WeatherDisplay:10.37,2013-03-10 23:15:00,
2013-03-10 19:20:00,63.1,37.8,29.92,ESE,120,40.3,40.3,39,0.00,BKN,OVC,0.00,WeatherDisplay:10.37,2013-03-10 23:20:00,
2013-03-10 19:25:00,63.0,37.6,29.92,ESE,120,40.3,40.3,39,0.00,BKN,OVC,0.00,WeatherDisplay:10.37,2013-03-10 23:25:00,
2013-03-10 19:30:00,62.8,38.1,29.92,ESE,120,40.3,40.3,40,0.00,BKN,OVC,0.00,WeatherDisplay:10.37,2013-03-10 23:30:00,
2013-03-10 19:35:00,62.8,38.1,29.93,ESE,120,40.3,40.3,40,0.00,BKN,OVC,0.00,WeatherDisplay:10.37,2013-03-10 23:35:00,
2013-03-10 19:40:00,62.4,37.8,29.92,ESE,120,40.3,40.3,40,0.00,BKN,OVC,0.00,WeatherDisplay:10.37,2013-03-10 23:40:00,
2013-03-10 19:45:00,62.2,38.2,29.93,ESE,120,40.3,40.3,41,0.00,BKN,OVC,0.00,WeatherDisplay:10.37,2013-03-10 23:45:00,
2013-03-10 19:50:00,61.9,37.9,29.92,ESE,120,40.3,40.3,41,0.00,BKN,OVC,0.00,WeatherDisplay:10.37,2013-03-10 23:50:00,
2013-03-10 19:55:00,61.5,38.2,29.92,ESE,120,40.3,40.3,42,0.00,BKN,OVC,0.00,WeatherDisplay:10.37,2013-03-10 23:55:00,
2013-03-10 20:00:00,61.0,38.3,29.93,ESE,120,40.3,40.3,43,0.00,BKN,OVC,0.00,WeatherDisplay:10.37,2013-03-11 00:00:00,
2013-03-10 20:05:00,60.6,38.0,29.92,ESE,120,40.3,40.3,43,0.00,BKN,OVC,0.00,WeatherDisplay:10.37,2013-03-11 00:05:00,
2013-03-10 20:10:00,60.1,38.1,29.92,ESE,120,40.3,40.3,44,0.00,BKN,OVC,0.00,WeatherDisplay:10.37,2013-03-11 00:10:00,
2013-03-10 20:15:00,59.5,38.2,29.92,ESE,120,40.3,40.3,45,0.00,BKN,OVC,0.00,WeatherDisplay:10.37,2013-03-11 00:15:00,
2013-03-10 20:20:00,58.8,38.1,29.92,East,100,6.9,6.9,46,0.00,BKN,OVC,0.00,WeatherDisplay:10.37,2013-03-11 00:20:00,
2013-03-10 20:25:00,58.8,38.6,29.93,East,100,6.9,6.9,47,0.00,BKN,OVC,0.00,WeatherDisplay:10.37,2013-03-11 00:25:00,
2013-03-10 20:30:00,58.1,38.5,29.93,East,100,6.9,6.9,48,0.00,BKN,OVC,0.00,WeatherDisplay:10.37,2013-03-11 00:30:00,
2013-03-10 20:35:00,57.7,38.2,29.93,East,100,6.9,6.9,48,0.00,BKN,OVC,0.00,WeatherDisplay:10.37,2013-03-11 00:35:00,
2013-03-10 20:40:00,57.6,38.5,29.93,East,100,6.9,6.9,49,0.00,BKN,OVC,0.00,WeatherDisplay:10.37,2013-03-11 00:40:00,
2013-03-10 20:45:00,57.0,38.5,29.93,East,100,6.9,6.9,50,0.00,BKN,OVC,0.00,WeatherDisplay:10.37,2013-03-11 00:45:00,
2013-03-10 20:50:00,56.8,38.9,29.92,East,100,6.9,6.9,51,0.00,BKN,OVC,0.00,WeatherDisplay:10.37,2013-03-11 00:50:00,
2013-03-10 20:55:00,56.5,38.6,29.93,East,100,6.9,6.9,51,0.00,BKN,OVC,0.00,WeatherDisplay:10.37,2013-03-11 00:55:00,
2013-03-10 21:00:00,55.9,38.6,29.93,East,100,6.9,6.9,52,0.00,BKN,OVC,0.00,WeatherDisplay:10.37,2013-03-11 01:00:00,
2013-03-10 21:05:00,55.8,38.4,29.93,East,100,6.9,6.9,52,0.00,BKN,OVC,0.00,WeatherDisplay:10.37,2013-03-11 01:05:00,
2013-03-10 21:10:00,55.6,38.2,29.93,East,100,6.9,6.9,52,0.00,BKN,OVC,0.00,WeatherDisplay:10.37,2013-03-11 01:10:00,
2013-03-10 21:15:00,55.2,38.4,29.93,East,100,6.9,6.9,53,0.00,BKN,OVC,0.00,WeatherDisplay:10.37,2013-03-11 01:15:00,
2013-03-10 21:20:00,55.0,38.2,29.93,East,100,8.1,8.1,53,0.00,SCT,OVC,0.00,WeatherDisplay:10.37,2013-03-11 01:20:00,
2013-03-10 21:25:00,54.9,38.5,29.92,East,100,8.1,8.1,54,0.00,SCT,OVC,0.00,WeatherDisplay:10.37,2013-03-11 01:25:00,
2013-03-10 21:30:00,54.5,38.2,29.93,East,100,8.1,8.1,54,0.00,SCT,OVC,0.00,WeatherDisplay:10.37,2013-03-11 01:30:00,
2013-03-10 21:35:00,54.5,38.7,29.93,East,100,8.1,8.1,55,0.00,SCT,OVC,0.00,WeatherDisplay:10.37,2013-03-11 01:35:00,
2013-03-10 21:40:00,54.3,38.5,29.93,East,100,8.1,8.1,55,0.00,SCT,OVC,0.00,WeatherDisplay:10.37,2013-03-11 01:40:00,
2013-03-10 21:45:00,54.3,38.9,29.94,East,100,8.1,8.1,56,0.00,SCT,OVC,0.00,WeatherDisplay:10.37,2013-03-11 01:45:00,
2013-03-10 21:50:00,54.1,38.8,29.94,East,100,8.1,8.1,56,0.00,SCT,OVC,0.00,WeatherDisplay:10.37,2013-03-11 01:50:00,
2013-03-10 21:55:00,54.0,39.1,29.93,East,100,8.1,8.1,57,0.00,SCT,OVC,0.00,WeatherDisplay:10.37,2013-03-11 01:55:00,
2013-03-10 22:00:00,53.6,38.7,29.93,East,100,8.1,8.1,57,0.00,SCT,OVC,0.00,WeatherDisplay:10.37,2013-03-11 02:00:00,
2013-03-10 22:05:00,53.4,39.0,29.93,East,100,8.1,8.1,58,0.00,SCT,OVC,0.00,WeatherDisplay:10.37,2013-03-11 02:05:00,
2013-03-10 22:10:00,53.2,38.8,29.94,East,100,8.1,8.1,58,0.00,SCT,OVC,0.00,WeatherDisplay:10.37,2013-03-11 02:10:00,
2013-03-10 22:15:00,52.9,38.5,29.94,East,100,8.1,8.1,58,0.00,SCT,OVC,0.00,WeatherDisplay:10.37,2013-03-11 02:15:00,
2013-03-10 22:20:00,52.5,38.6,29.93,East,100,8.1,8.1,59,0.00,FEW,OVC,0.00,WeatherDisplay:10.37,2013-03-11 02:20:00,
2013-03-10 22:25:00,52.5,38.6,29.93,East,100,8.1,8.1,59,0.00,FEW,OVC,0.00,WeatherDisplay:10.37,2013-03-11 02:25:00,
2013-03-10 22:30:00,52.3,38.9,29.93,East,100,8.1,8.1,60,0.00,FEW,OVC,0.00,WeatherDisplay:10.37,2013-03-11 02:30:00,
2013-03-10 22:35:00,52.2,38.7,29.94,East,100,8.1,8.1,60,0.00,FEW,OVC,0.00,WeatherDisplay:10.37,2013-03-11 02:35:00,
2013-03-10 22:40:00,52.0,38.5,29.93,East,100,8.1,8.1,60,0.00,FEW,OVC,0.00,WeatherDisplay:10.37,2013-03-11 02:40:00,
2013-03-10 22:45:00,51.8,38.8,29.93,East,100,8.1,8.1,61,0.00,FEW,OVC,0.00,WeatherDisplay:10.37,2013-03-11 02:45:00,
2013-03-10 22:50:00,51.6,38.6,29.94,East,100,8.1,8.1,61,0.00,FEW,OVC,0.00,WeatherDisplay:10.37,2013-03-11 02:50:00,
2013-03-10 22:55:00,51.6,39.0,29.94,East,100,8.1,8.1,62,0.00,FEW,OVC,0.00,WeatherDisplay:10.37,2013-03-11 02:55:00,
2013-03-10 23:00:00,51.6,39.0,29.94,East,100,8.1,8.1,62,0.00,FEW,OVC,0.00,WeatherDisplay:10.37,2013-03-11 03:00:00,
2013-03-10 23:05:00,51.4,39.3,29.94,East,100,8.1,8.1,63,0.00,FEW,OVC,0.00,WeatherDisplay:10.37,2013-03-11 03:05:00,
2013-03-10 23:10:00,51.4,38.8,29.94,East,100,8.1,8.1,62,0.00,FEW,OVC,0.00,WeatherDisplay:10.37,2013-03-11 03:10:00,
2013-03-10 23:15:00,51.4,39.3,29.94,East,100,8.1,8.1,63,0.00,FEW,OVC,0.00,WeatherDisplay:10.37,2013-03-11 03:15:00,
2013-03-10 23:20:00,51.3,39.1,29.93,East,90,8.1,8.1,63,0.00,SCT,OVC,0.00,WeatherDisplay:10.37,2013-03-11 03:20:00,
2013-03-10 23:25:00,51.1,39.3,29.93,East,90,8.1,8.1,64,0.00,SCT,OVC,0.00,WeatherDisplay:10.37,2013-03-11 03:25:00,
2013-03-10 23:30:00,51.1,39.3,29.93,East,90,8.1,8.1,64,0.00,SCT,OVC,0.00,WeatherDisplay:10.37,2013-03-11 03:30:00,
2013-03-10 23:35:00,51.1,39.3,29.93,East,90,8.1,8.1,64,0.00,SCT,OVC,0.00,WeatherDisplay:10.37,2013-03-11 03:35:00,
2013-03-10 23:40:00,50.9,39.5,29.93,East,90,8.1,8.1,65,0.00,SCT,OVC,0.00,WeatherDisplay:10.37,2013-03-11 03:40:00,
2013-03-10 23:45:00,50.9,39.5,29.93,East,90,8.1,8.1,65,0.00,SCT,OVC,0.00,WeatherDisplay:10.37,2013-03-11 03:45:00,
2013-03-10 23:50:00,50.7,39.4,29.93,East,90,8.1,8.1,65,0.00,SCT,OVC,0.00,WeatherDisplay:10.37,2013-03-11 03:50:00,
2013-03-10 23:55:00,50.7,39.8,29.93,East,90,8.1,8.1,66,0.00,SCT,OVC,0.00,WeatherDisplay:10.37,2013-03-11 03:55:00,